Location: Riedlingen
(48.1569°N, 9.4757°E)
Time: 04:22:48
(UTC+02:00)

ISS - Pass Details

Date: 16 May 2021
Orbit: 417 x 422 km, 51.6° (Epoch: 15 June)

Event Time Altitude Azimuth Distance (km) Brightness Sun altitude
Rises 01:14:12 0° 280° (W) 2,369 0.2 -22.7°
Reaches altitude 10° 01:16:22 10° 287° (WNW) 1,506 -0.8 -22.7°
Maximum altitude 01:19:37 44° 1° (N) 597 -2.6 -22.7°
Drops below altitude 10° 01:22:53 10° 75° (ENE) 1,508 -0.8 -22.7°
Sets 01:25:03 0° 82° (E) 2,374 0.2 -22.7°
